EHI
0 0 0 0 0 0 0 0 0 0 0 0 0 0 1 1 1 0 0 0 0 0 0 0 0 0 0 0 0 0 0 0 0 0 0 0 0 0
0 0 0 0 0 0 0 0 0 0 0 0 0 0 0 0 0 0 0 0 0 0 0 0 0 0 0 0 0 0 0 0 0 0 0 0 0 0
0 0 0 0 1 1 1 0 0 0 0 0 0 0 0 0 0 0 0 0 0 0 0 0 0 0 0 0 0 0 0 0 0 0 0 0 0 0
1 1 1 1 2 3 3 1 0 0 0 0 0 0 1 1 1 1 0 0 0 0 0 0 0 0 0 0 0 0 0 0 0 0 0 0 0 0
3 2 2 2 3 4 5 3 2 2 1 1 1 2 3 3 2 1 0 0 0 0 0 0 0 0 0 0 0 0 0 0 0 0 0 0 0 0
4 3 2 1 1 3 4 4 6 7 7 5 3 3 5 4 2 1 0 1 1 0 0 0 1 1 0 0 0 0 0 0 0 0 0 0 0 0
4 3 2 0 0 1 1 3 6 9 9 7 3 3 4 4 2 1 0 1 1 1 2 2 2 2 1 0 0 0 0 0 0 0 0 0 0 0
4 2 1 0 0 0 0 1 3 4 5 4 2 1 3 3 3 1 1 1 1 1 2 3 3 3 1 0 0 0 0 0 0 0 0 0 0 0
2 1 0 0 0 0 0 0 0 0 1 1 0 0 1 2 3 3 2 1 0 0 1 1 1 1 1 0 0 0 0 0 0 0 0 0 0 0
0 0 0 0 0 0 0 0 0 0 0 0 0 0 0 1 2 2 2 1 0 0 0 0 0 0 0 0 0 0 0 0 0 0 0 0 0 0
0 0 0 0 0 0 0 0 0 0 0 0 0 0 0 0 1 1 1 0 0 0 1 1 0 0 0 0 0 0 0 0 0 0 0 0 0 0
0 0 0 0 0 0 0 0 0 0 0 0 0 0 0 0 0 0 0 0 0 0 1 1 0 0 0 0 0 0 0 0 0 0 0 0 0 0
0 0 0 0 0 0 0 0 0 0 0 0 0 0 0 0 0 0 0 0 0 0 0 0 0 0 0 0 0 0 0 0 0 0 0 0 0 0
0 0 0 0 0 0 0 0 0 0 0 0 0 0 0 0 0 0 0 0 0 0 0 0 0 0 0 0 0 0 0 0 0 0 0 0 0 0
0 0 0 0 0 0 0 0 0 0 0 0 0 0 0 0 0 0 0 0 0 0 0 0 0 0 0 0 0 0 0 0 0 0 0 0 0 0
0 0 0 0 0 0 0 0 0 0 0 0 0 0 0 0 0 0 0 0 0 0 0 0 0 0 0 0 0 0 0 0 0 0 0 0 0 0
0 0 0 0 0 0 0 0 0 0 0 0 0 0 0 0 0 0 0 0 0 0 0 0 0 0 0 0 0 0 0 0 0 0 0 0 0 0
0 0 0 0 0 0 0 0 0 0 0 0 0 0 0 0 0 0 0 0 0 0 0 0 0 0 0 0 0 0 0 0 0 0 0 0 0 0
0 0 0 0 0 0 0 0 0 0 0 0 0 0 0 0 0 0 0 0 0 0 0 0 0 0 0 0 0 0 0 0 0 0 0 0 0 0
0 0 0 0 0 0 0 0 0 0 0 0 0 0 0 0 0 0 0 0 0 0 0 0 0 0 0 0 0 0 0 0 0 0 0 0 0 0
0 0 0 0 0 0 0 0 0 0 0 0 0 0 0 0 0 0 0 0 0 0 0 0 0 0 0 0 0 0 0 0 0 0 0 0 0 0
0 0 0 0 0 0 0 0 0 0 0 0 0 0 0 0 0 0 0 0 0 0 0 0 0 0 0 0 0 0 0 0 0 0 0 0 0 0
0 0 0 0 0 0 0 0 0 0 0 0 0 0 0 0 0 0 0 0 0 0 0 0 0 0 0 0 0 0 0 0 0 0 0 0 0 0
Wind_Speed
5 5 5 2 3 3 3 4 5 6 4 4 4 3 3 3 2 5 6 7 9 9 9 10 10 10 10 10 10 10 10 10 10 10 11 11 12 13
4 3 4 5 3 4 4 4 5 6 6 3 3 3 2 4 5 5 7 6 10 11 11 11 11 11 11 11 11 12 12 12 12 12 12 12 12 13
6 6 6 5 4 4 4 5 5 5 6 6 4 3 4 7 5 6 8 8 9 15 14 13 13 13 13 13 13 13 13 13 14 13 13 13 13 14
6 6 6 5 5 6 4 5 5 4 7 8 6 5 6 7 7 7 8 8 9 9 14 13 14 14 14 14 14 14 15 15 15 15 15 15 15 15
5 5 5 5 5 5 5 5 5 5 6 7 8 5 6 6 6 8 10 8 10 8 12 15 15 15 15 15 16 16 16 16 16 16 16 16 16 16
2 2 2 3 4 5 5 5 6 6 6 7 7 6 6 6 6 7 8 6 8 9 9 8 11 15 17 17 17 17 17 16 16 16 16 17 17 17
1 1 2 3 5 3 3 3 4 5 5 6 6 6 6 5 5 6 8 8 8 9 9 9 8 9 11 15 18 18 17 16 16 16 16 17 17 17
2 2 2 3 3 2 3 4 5 5 6 6 6 6 6 6 5 7 8 9 9 6 6 9 9 10 10 11 9 11 14 15 15 16 16 17 17 18
3 2 2 4 3 3 1 2 3 3 4 6 8 7 7 6 7 9 8 10 10 9 9 11 10 11 11 11 11 10 11 13 15 16 16 17 17 18
4 4 4 4 7 7 6 5 5 3 3 4 5 7 7 7 7 9 10 11 12 10 10 11 11 11 11 10 11 12 14 15 16 17 17 17 18 18
4 5 4 5 8 8 6 6 6 5 3 4 5 7 9 9 9 8 9 10 11 9 7 10 11 11 11 11 11 12 14 16 17 17 17 18 18 17
2 3 7 7 7 8 7 6 7 7 8 7 7 9 10 10 11 9 9 9 10 10 7 8 10 10 11 10 10 9 10 12 16 18 19 19 18 15
2 2 5 6 5 6 7 7 6 9 11 10 9 8 7 6 7 6 6 8 10 10 9 10 11 11 12 12 11 11 12 12 12 13 15 19 19 17
5 5 5 5 6 8 7 5 7 10 10 8 8 8 7 7 7 7 9 10 11 13 13 13 12 12 13 14 13 12 12 12 12 13 13 13 15 20
5 4 4 6 9 8 6 7 9 8 7 8 8 8 8 8 9 9 10 10 11 12 12 12 12 12 12 14 14 13 13 13 12 13 13 14 13 12
6 4 10 12 10 8 7 6 5 6 7 8 8 8 8 8 9 9 9 9 10 11 11 11 12 13 13 14 13 14 14 14 13 14 14 14 14 13
10 9 7 6 6 6 6 6 6 7 6 7 8 8 8 9 9 9 9 10 10 11 11 10 11 11 12 13 14 14 14 14 13 13 13 15 14 14
10 7 6 6 7 7 8 7 7 7 7 8 8 8 8 9 9 9 9 10 10 11 11 11 11 12 12 12 12 14 13 13 13 13 14 15 16 14
7 6 6 6 7 7 7 7 8 8 8 8 8 8 9 9 9 9 10 10 10 11 11 11 11 11 12 13 13 11 13 14 14 14 13 14 16 15
6 7 7 7 7 7 7 8 8 8 8 8 8 8 8 9 9 10 10 11 11 12 12 12 11 10 11 13 14 15 16 16 14 14 14 14 15 16
7 7 7 7 7 7 7 8 8 8 9 9 8 9 9 9 9 10 10 13 12 11 12 12 12 14 13 11 12 13 15 15 15 14 15 15 15 14
7 7 7 7 7 7 7 8 8 9 9 8 9 9 9 9 11 12 11 11 11 11 13 12 14 13 11 12 14 16 17 16 15 17 19 20 15 14
7 8 8 8 7 7 8 9 10 9 8 9 9 9 10 10 10 10 11 11 11 12 13 13 12 11 12 12 14 14 19 18 14 13 13 15 19 24
Wind_Direction
218 207 236 229 242 258 267 277 284 282 263 189 226 201 230 241 166 241 247 188 203 221 229 232 235 238 241 244 248 251 253 255 256 257 257 257 257 257
248 256 251 248 240 244 250 254 264 277 283 279 229 244 269 278 193 242 256 188 209 221 229 234 237 240 242 244 245 247 249 251 252 252 252 251 251 251
229 229 233 259 258 253 245 249 251 258 266 272 259 233 235 266 262 256 256 249 235 207 217 229 236 240 242 244 245 245 246 247 248 249 250 250 249 248
233 237 241 235 236 261 263 258 258 264 266 274 278 260 234 245 256 262 264 257 264 210 205 223 233 239 242 245 246 246 246 246 246 247 248 249 249 249
235 237 244 248 246 252 259 265 265 257 258 268 271 279 270 260 261 258 262 264 269 253 212 218 228 236 242 244 245 246 246 246 245 246 246 247 248 248
225 235 251 257 259 264 258 263 271 274 268 267 274 276 272 273 272 273 273 262 265 277 274 259 236 230 236 240 241 242 243 243 245 246 246 247 247 247
154 114 72 58 35 352 313 298 283 270 268 267 270 273 274 282 279 282 282 285 275 272 274 270 261 255 244 236 236 239 239 240 243 246 247 247 247 247
100 95 117 101 81 78 19 349 328 295 289 284 279 280 285 288 292 288 289 286 284 286 293 284 285 280 276 270 262 235 232 237 242 246 248 249 248 247
62 44 25 52 22 354 325 251 269 269 281 289 288 290 294 302 303 290 284 284 285 294 293 280 278 275 274 275 272 255 242 241 244 247 250 251 251 251
58 47 38 34 27 359 336 327 312 300 288 280 299 302 304 309 296 285 284 278 271 263 257 270 276 275 275 274 266 251 245 244 247 250 251 252 252 252
60 52 37 46 39 356 324 320 314 307 248 224 261 274 281 278 277 282 279 277 278 279 271 274 282 285 285 282 276 254 243 244 245 248 251 253 253 254
82 106 78 47 28 355 329 321 313 319 317 301 271 255 259 257 236 248 272 280 285 288 288 287 287 291 287 279 280 284 272 258 249 247 246 247 247 253
351 344 73 55 7 335 311 311 327 313 296 287 284 282 274 271 265 261 272 283 288 287 297 297 292 289 284 287 288 286 284 282 276 265 250 242 240 240
336 348 33 14 324 300 296 325 303 286 282 290 294 296 300 303 307 306 297 288 282 283 289 289 284 284 286 286 286 286 284 283 281 280 279 268 244 235
346 16 319 286 286 271 231 257 276 282 303 305 303 307 310 312 307 297 288 282 277 275 276 276 277 281 280 281 286 286 285 282 279 277 276 274 274 266
327 283 233 237 250 275 286 268 291 323 323 311 313 313 311 307 303 305 306 305 298 294 289 285 280 279 279 280 282 283 282 281 280 278 278 276 273 269
323 300 309 324 323 330 331 333 327 324 319 318 315 312 309 307 306 307 304 302 298 299 301 299 294 289 282 281 281 280 281 280 280 282 280 278 274 272
302 314 336 338 336 335 331 329 329 330 326 319 313 311 309 308 307 307 305 301 300 301 302 303 303 299 292 281 269 279 281 283 284 282 279 277 275 273
299 339 342 337 333 329 327 324 323 323 320 315 314 313 312 310 308 307 306 305 303 302 300 300 297 295 293 292 291 282 291 292 288 283 279 276 276 276
343 346 341 338 333 330 328 327 324 322 320 317 314 312 311 309 307 306 304 304 304 302 299 296 293 294 294 295 295 292 282 279 282 283 282 280 278 277
351 345 341 337 333 330 328 325 322 319 318 317 314 314 313 311 306 304 302 301 296 294 294 294 296 296 291 287 283 283 286 279 271 275 283 284 282 280
344 341 339 333 330 328 325 324 321 317 317 316 316 314 313 309 304 302 300 299 296 294 294 294 296 295 291 286 287 290 294 293 285 269 258 259 267 272
341 337 331 330 331 329 328 324 320 318 319 320 318 313 309 306 303 299 297 295 295 294 295 296 297 295 292 289 288 289 291 294 293 291 282 268 254 251